User: anonymous   Login
Location: Okie-Tex Star Party
(36.8978°N, 102.9520°W)
Time: 09:10:36
(UTC-05:00)
Language:

Hamsat - Orbit

View from above orbital plane
View from above orbital plane
View from above satellite
View from above satellite

Ground track
Ground track

The orbit data is extracted from the following two-line orbital elements,

1 28650U 05017B   16206.17689305  .00000426  00000-0  51472-4 0  9993
2 28650  97.6103 186.5466 0024804 134.1339 226.1924 14.88336170607377
Epoch (UTC): 24 July 2016 04:14:43
Eccentricity: 0.0024804
inclination: 97.6103°
perigee height: 586 km
apogee height: 620 km
right ascension of ascending node: 186.5466°
argument of perigee: 134.1339°
revolutions per day: 14.88336170
mean anomaly at epoch: 226.1924°
orbit number at epoch: 60737

The dashed part of the orbit path shows where the satellite is in the earth's shadow,  

DLR